📊 Raw Sensor Data
Showing records 34051 to 34075 of 84,822 total
| ID | Distance (ft) | Battery V | Battery A | Int Temp (°F) | Int Humid (%) | Ext Temp (°F) | Solar V | RSSI | SNR | Time Stamp |
|---|---|---|---|---|---|---|---|---|---|---|
| 50784 | 15.7 | 3.87 | 0 | 115 | 44 | 104 | 5.20 | -71 | 8 | 08/31/2025 03:45 PM |
| 50783 | 15.7 | 3.87 | 0 | 114 | 44 | 103 | 5.20 | -71 | 8 | 08/31/2025 03:30 PM |
| 50782 | 15.6 | 3.95 | 0 | 114 | 43 | 103 | 5.20 | -71 | 8 | 08/31/2025 03:15 PM |
| 50781 | 15.7 | 3.87 | 0 | 113 | 43 | 100 | 5.10 | -70 | 8 | 08/31/2025 03:00 PM |
| 50780 | 15.6 | 3.91 | 0 | 113 | 43 | 100 | 5.20 | -70 | 9 | 08/31/2025 02:45 PM |
| 50779 | 15.7 | 3.87 | 0 | 112 | 42 | 100 | 5.10 | -74 | 8 | 08/31/2025 02:30 PM |
| 50778 | 15.6 | 3.91 | 0 | 111 | 42 | 99 | 5.10 | -70 | 8 | 08/31/2025 02:15 PM |
| 50777 | 15.6 | 3.87 | 0 | 110 | 42 | 99 | 5.20 | -70 | 8 | 08/31/2025 02:00 PM |
| 50776 | 15.7 | 3.88 | 0 | 108 | 43 | 97 | 5.20 | -70 | 7 | 08/31/2025 01:45 PM |
| 50775 | 15.6 | 3.94 | 5 | 108 | 42 | 96 | 5.20 | -71 | 7 | 08/31/2025 01:30 PM |
| 50774 | 15.7 | 3.88 | 5 | 108 | 42 | 97 | 5.20 | -71 | 7 | 08/31/2025 01:15 PM |
| 50773 | 15.6 | 3.88 | 0 | 108 | 41 | 99 | 5.20 | -71 | 8 | 08/31/2025 01:00 PM |
| 50772 | 15.7 | 3.88 | 5 | 106 | 41 | 99 | 5.20 | -72 | 7 | 08/31/2025 12:45 PM |
| 50771 | 15.6 | 3.88 | 6 | 105 | 41 | 99 | 5.20 | -72 | 7 | 08/31/2025 12:30 PM |
| 50770 | 15.6 | 3.88 | 0 | 102 | 41 | 97 | 5.10 | -71 | 7 | 08/31/2025 12:15 PM |
| 50769 | 15.7 | 3.88 | 0 | 100 | 41 | 93 | 5.10 | -71 | 8 | 08/31/2025 12:00 PM |
| 50768 | 15.7 | 3.88 | 6 | 99 | 41 | 94 | 5.10 | -71 | 7 | 08/31/2025 11:45 AM |
| 50767 | 15.7 | 3.87 | 6 | 97 | 41 | 96 | 5.20 | -72 | 7 | 08/31/2025 11:30 AM |
| 50766 | 15.7 | 3.87 | 0 | 95 | 41 | 96 | 5.20 | -71 | 7 | 08/31/2025 11:15 AM |
| 50765 | 15.8 | 3.88 | 6 | 92 | 41 | 91 | 5.10 | -71 | 7 | 08/31/2025 11:00 AM |
| 50764 | 15.7 | 3.98 | 7 | 90 | 41 | 90 | 5.10 | -71 | 7 | 08/31/2025 10:45 AM |
| 50763 | 15.7 | 3.88 | 0 | 89 | 41 | 88 | 5.10 | -70 | 8 | 08/31/2025 10:30 AM |
| 50762 | 15.7 | 3.90 | 8 | 87 | 41 | 90 | 5.10 | -71 | 7 | 08/31/2025 10:15 AM |
| 50761 | 15.7 | 4.02 | 8 | 84 | 41 | 86 | 5.10 | -71 | 7 | 08/31/2025 10:00 AM |
| 50760 | 15.7 | 3.93 | 8 | 82 | 41 | 83 | 5.10 | -70 | 7 | 08/31/2025 09:45 AM |